FW6064 Weather Reports


time (UTC)temp
C
wind
direction
speed
KPH
gust
KPH
rain 1hr
cm
rain 24hr
cm
rain mn
cm
humidity
%
barometer
mb
20260505071535 14 0 0.0 0.0 0.00 0.00 0.00 71 1015.8
20260505070059 14 0 0.0 0.0 0.00 0.00 0.00 70 1015.7
20260505064550 15 0 0.0 0.0 0.00 0.00 0.00 68 1015.7
20260505063042 15 0 0.0 0.0 0.00 0.00 0.00 67 1015.9
20260505061611 15 0 0.0 0.0 0.00 0.00 0.00 65 1015.9
20260505060052 16 0 0.0 0.0 0.00 0.00 0.00 64 1015.8
20260505054548 16 0 0.0 0.0 0.00 0.00 0.00 63 1015.8
20260505053043 16 0 0.0 0.0 0.00 0.00 0.00 62 1015.9
20260505051537 17 0 0.0 0.0 0.00 0.00 0.00 61 1016.1
20260505041539 16 0 0.0 0.0 0.00 0.00 0.00 61 1015.9
20260505040059 16 0 0.0 0.0 0.00 0.00 0.00 59 1015.8
20260505034544 17 0 0.0 0.0 0.00 0.00 0.00 58 1015.8
20260505033043 17 0 0.0 0.0 0.00 0.00 0.00 58 1015.9
20260505031550 16 0 0.0 0.0 0.00 0.00 0.00 59 1015.8
20260505030043 16 0 0.0 0.0 0.00 0.00 0.00 60 1015.8
20260505024543 16 0 0.0 0.0 0.00 0.00 0.00 60 1015.7
20260505023043 16 0 0.0 0.0 0.00 0.00 0.00 60 1015.9
20260505021543 16 0 0.0 0.0 0.00 0.00 0.00 57 1015.7
20260505020042 17 0 0.0 0.0 0.00 0.00 0.00 55 1015.9
20260505014542 17 0 0.0 0.0 0.00 0.00 0.00 52 1015.6
20260505013037 18 0 0.0 0.0 0.00 0.00 0.00 50 1015.5
20260505011545 18 0 0.0 0.0 0.00 0.00 0.00 49 1015.4
20260505010056 19 0 0.0 0.0 0.00 0.00 0.00 47 1015.1
20260505004543 20 0 0.0 0.0 0.00 0.00 0.00 46 1015.0
20260505003039 20 0 0.0 0.0 0.00 0.00 0.00 44 1015.1
20260505001536 20 0 0.0 0.0 0.00 0.00 0.00 44 1015.0
20260505000049 20 0 0.0 0.0 0.00 0.00 0.00 43 1014.9
20260504234540 21 0 0.0 3.2 0.00 0.00 0.00 41 1014.7
20260504233042 21 0 0.0 4.8 0.00 0.00 0.00 40 1014.9
20260504231539 21 0 0.0 3.2 0.00 0.00 0.00 39 1014.9
20260504230047 22 0 0.0 11.3 0.00 0.00 0.00 38 1014.9
20260504224542 22 0 0.0 8.0 0.00 0.00 0.00 38 1014.8
20260504223043 22 0 0.0 6.4 0.00 0.00 0.00 37 1014.8
20260504221542 23 0 0.0 9.7 0.00 0.00 0.00 36 1014.8
20260504220047 23 0 0.0 1.6 0.00 0.00 0.00 35 1014.7
20260504214537 23 0 0.0 12.9 0.00 0.00 0.00 34 1014.7
20260504213101 23 0 0.0 1.6 0.00 0.00 0.00 36 1014.7
20260504211544 23 0 0.0 11.3 0.00 0.00 0.00 35 1014.8
20260504210043 23 203 0.0 11.3 0.00 0.00 0.00 36 1014.9
20260504204542 23 0 0.0 8.0 0.00 0.00 0.00 35 1014.7
20260504203038 23 0 0.0 12.9 0.00 0.00 0.00 35 1014.8
20260504201535 23 0 0.0 4.8 0.00 0.00 0.00 38 1015.1
20260504200043 23 269 0.0 8.0 0.00 0.00 0.00 37 1015.2
20260504194539 23 0 0.0 6.4 0.00 0.00 0.00 35 1015.4
20260504193103 22 215 0.0 9.7 0.00 0.00 0.00 38 1016.0
20260504191538 22 209 0.0 12.9 0.00 0.00 0.00 39 1016.1
20260504190040 22 0 0.0 3.2 0.00 0.00 0.00 38 1016.5
20260504184543 22 0 0.0 11.3 0.00 0.00 0.00 37 1016.8
20260504183054 22 0 0.0 3.2 0.00 0.00 0.00 39 1017.1
20260504181540 21 0 0.0 6.4 0.00 0.00 0.00 38 1017.1
20260504180105 21 0 0.0 12.9 0.00 0.00 0.00 38 1017.3
20260504174543 21 0 0.0 9.7 0.00 0.00 0.00 35 1017.3
20260504173043 21 197 0.0 9.7 0.00 0.00 0.00 37 1017.6
20260504171541 21 0 0.0 12.9 0.00 0.00 0.00 37 1017.8
20260504081541 3 0 0.0 0.0 0.00 0.00 0.00 92 1020.7